Theta_e
307 306 307 307 307 306 307 307 308 308 309 309 310 309 309 308 308 311 312 313 313 311 309 315 320 319 319 320 318 317 317 318 319 317 317 317 317 318 319 319 319 320 322 329 348
306 306 306 306 306 306 307 307 307 307 307 308 309 308 308 307 309 311 311 310 311 309 312 313 318 320 321 321 319 318 320 320 320 319 318 319 317 318 317 318 319 324 339 353 350
306 306 306 306 306 306 306 306 306 306 307 307 307 307 306 308 311 313 314 312 311 314 314 312 314 319 319 321 320 320 322 322 320 319 318 318 317 317 317 318 319 320 336 357 354
305 305 305 306 306 306 306 306 307 306 306 306 306 306 307 309 314 311 315 314 317 317 320 314 315 319 319 320 320 319 320 320 321 318 317 317 318 317 317 317 319 320 319 321 358
304 305 304 305 305 305 305 305 305 306 306 306 306 306 307 311 312 310 320 318 321 324 322 315 316 318 318 318 320 320 319 320 319 318 317 317 318 317 318 318 318 318 319 320 323
304 304 304 304 304 304 304 303 303 304 305 306 306 306 308 309 308 308 309 310 315 320 320 316 315 317 316 317 318 319 319 319 318 318 319 318 318 317 318 318 318 318 319 320 322
303 303 303 304 303 303 301 302 301 303 305 306 307 307 308 309 307 309 309 311 312 316 318 318 314 315 315 316 317 317 318 319 319 319 318 318 318 318 319 318 318 318 318 320 321
303 301 302 302 303 303 302 302 301 303 305 308 307 307 308 306 307 307 307 306 307 311 317 316 316 316 315 316 316 317 318 319 319 319 319 319 319 320 321 319 319 319 318 319 321
302 301 302 302 302 303 303 302 303 305 308 309 308 308 309 307 308 308 308 308 308 308 316 315 317 319 317 317 318 318 319 318 318 319 318 319 318 319 319 321 321 321 319 319 320
301 301 301 302 302 303 302 304 302 309 309 309 308 308 309 309 310 311 313 310 312 310 313 316 317 318 318 318 322 320 319 320 320 319 319 319 318 320 319 320 320 322 321 319 320
301 301 301 301 302 302 304 305 307 310 308 306 306 310 307 305 305 309 314 312 315 313 315 316 317 319 318 320 319 320 320 320 319 319 320 320 320 319 320 320 320 321 321 320 320
301 301 301 301 301 302 306 306 305 305 307 306 306 305 304 303 304 306 308 315 316 317 315 316 318 316 317 318 319 319 320 320 319 318 319 320 320 320 320 320 321 321 321 321 320
298 298 301 301 301 306 307 305 304 304 307 305 305 304 306 306 306 308 308 310 313 314 315 318 315 315 316 319 319 320 321 320 319 319 318 319 321 321 321 321 321 321 321 321 321
297 299 300 300 304 306 307 305 305 304 307 305 306 310 310 311 311 310 312 311 309 312 312 314 316 315 317 317 319 321 320 320 319 319 320 318 320 321 322 322 322 322 322 321 321
297 299 300 301 305 307 305 305 305 305 308 305 309 310 311 312 312 311 312 312 314 311 311 313 312 313 315 318 319 321 320 320 319 319 319 319 319 321 321 321 321 322 321 322 322
297 298 300 303 305 305 305 304 306 310 308 305 307 308 309 310 310 310 311 314 315 315 314 314 314 315 314 315 317 319 320 320 321 320 320 320 320 321 322 322 321 322 322 322 321
297 299 301 301 302 302 305 307 309 310 308 307 308 309 311 311 312 313 312 314 317 319 323 318 318 316 315 316 315 319 323 326 326 323 320 320 320 321 322 321 322 322 322 322 322
298 300 301 301 301 305 306 307 312 309 309 308 308 309 313 313 313 314 314 314 313 316 319 316 315 315 315 317 318 321 323 325 325 323 321 320 320 321 320 319 321 322 324 329 335
300 301 300 300 302 305 307 309 309 307 306 308 309 312 315 314 314 316 316 316 314 315 319 316 317 316 317 317 319 321 324 321 320 321 322 320 320 320 320 319 326 329 336 340 337
301 301 300 299 302 305 308 305 306 305 305 307 311 313 314 315 318 317 317 316 318 316 318 318 324 319 319 317 318 320 322 322 319 323 322 321 322 322 321 325 334 337 338 336 336
301 303 299 300 301 305 306 305 304 303 306 309 311 312 315 314 314 319 317 315 315 316 317 319 323 322 319 321 323 325 324 320 319 321 322 323 322 325 323 327 335 338 334 333 333
301 301 300 300 304 304 304 303 303 304 304 306 308 311 313 312 312 316 316 316 314 314 317 320 322 324 322 319 319 322 323 321 321 323 321 322 323 332 325 329 335 334 334 331 330
303 302 301 301 304 303 303 303 304 305 305 307 307 310 310 311 313 315 314 312 314 313 315 318 324 324 329 323 321 320 323 321 321 325 323 326 337 331 332 333 335 333 332 330 330
302 303 303 303 303 302 302 304 305 305 305 305 307 309 312 312 310 313 312 312 312 312 317 319 321 323 325 324 321 323 324 323 321 324 325 322 336 333 336 336 333 332 330 329 329
302 302 301 303 303 301 303 304 305 305 304 305 307 309 310 310 310 312 312 311 311 313 315 315 321 321 321 321 320 321 325 323 324 322 324 328 330 335 334 331 332 330 330 329 327
303 302 301 301 301 302 304 306 305 304 304 306 308 308 308 308 309 309 311 310 311 313 313 314 321 322 323 320 321 324 326 323 321 321 322 328 332 333 333 331 331 329 328 327 325
300 299 300 301 302 303 305 303 305 305 305 305 305 306 308 309 308 307 307 307 308 310 311 313 318 321 326 322 326 327 328 322 322 321 322 325 334 334 331 331 330 328 327 325 322
Wind_Speed
18 18 18 19 20 21 20 20 19 18 18 18 18 20 21 24 28 26 27 23 11 28 10 7 11 16 20 16 12 15 10 18 23 19 17 1 11 11 4 9 8 10 10 5 4
19 19 19 19 19 19 18 18 19 20 20 19 19 20 21 23 28 34 29 22 27 10 13 17 15 17 15 19 12 16 16 25 20 15 13 13 8 7 9 14 12 11 7 5 11
21 21 21 20 20 20 20 19 19 19 19 18 18 18 17 16 18 5 4 16 23 20 16 20 18 19 19 17 21 17 28 18 17 15 18 18 11 9 11 13 12 14 4 4 9
25 25 25 25 25 25 23 22 21 20 20 19 17 15 12 10 7 2 7 8 9 14 16 19 19 23 18 20 24 20 24 25 19 16 17 20 18 18 15 15 3 7 3 2 9
27 27 28 28 29 28 28 28 27 26 23 21 17 13 10 12 16 14 10 6 1 22 21 18 22 23 22 19 22 29 21 17 21 20 19 18 20 18 19 17 17 13 10 9 8
28 29 29 30 31 31 31 33 34 32 28 23 19 12 13 17 5 9 11 13 12 16 21 21 14 23 13 23 22 11 25 27 19 22 22 22 21 20 15 15 14 15 18 14 10
29 30 31 31 33 34 38 40 41 36 31 27 20 15 18 27 3 8 4 5 8 19 19 22 25 15 11 17 20 16 17 16 26 25 19 15 27 31 21 17 19 18 18 16 12
31 34 33 34 35 36 41 43 38 37 28 18 14 16 12 20 20 31 32 35 26 16 20 19 22 20 24 15 8 22 22 24 25 23 24 18 26 21 26 25 26 24 20 17 16
34 36 34 35 37 40 41 41 36 22 9 5 10 12 9 6 14 18 23 20 20 26 19 9 14 20 15 19 16 19 24 32 23 22 18 25 18 24 9 24 25 22 21 19 18
34 35 37 38 42 41 36 29 9 1 4 7 1 8 9 6 4 5 7 22 10 20 19 19 11 15 20 19 25 27 30 25 26 25 24 24 23 11 10 21 19 23 22 21 21
35 37 39 43 42 36 23 18 4 5 8 13 20 20 25 31 28 15 6 17 13 20 24 23 20 29 44 41 36 9 18 26 22 16 25 30 23 24 15 16 19 18 19 21 22
39 41 41 45 41 16 15 7 5 6 15 19 26 27 37 32 24 20 16 14 14 18 22 17 29 38 28 27 28 31 22 20 18 18 19 23 26 23 24 18 20 18 17 19 21
45 48 46 42 21 9 11 10 6 14 9 19 11 10 6 11 12 14 22 24 23 21 24 27 27 30 26 28 28 29 31 21 16 18 19 15 19 24 26 25 22 18 16 18 20
48 48 48 41 9 15 7 14 12 11 6 7 2 2 5 3 6 16 11 10 24 26 22 24 26 27 24 29 28 28 27 23 15 13 17 21 12 26 24 27 28 26 23 21 20
50 51 45 16 12 11 16 15 12 2 7 6 4 4 3 8 13 7 19 13 11 22 13 28 27 28 29 24 30 29 20 25 19 19 13 22 10 15 26 27 28 24 23 22 21
51 50 28 11 11 14 19 14 7 5 3 10 5 15 17 17 21 18 13 15 9 12 20 22 16 18 26 26 25 22 20 22 22 18 17 19 18 17 19 27 24 23 23 23 22
51 32 16 11 15 24 15 8 6 6 17 10 19 21 22 25 21 15 12 17 13 6 9 16 22 17 21 23 27 21 19 9 12 14 15 26 17 21 17 18 21 24 23 22 19
47 22 12 12 23 16 13 6 7 16 14 20 20 28 19 14 12 8 12 11 16 14 13 15 13 18 23 29 25 30 28 11 20 20 25 16 20 12 12 9 10 19 19 16 14
35 13 15 22 18 12 5 4 12 13 12 13 24 14 9 9 6 8 11 8 9 9 9 8 9 6 14 27 28 24 26 29 13 19 17 15 13 12 11 15 12 15 20 19 16
25 10 19 25 16 8 5 8 13 12 15 7 5 9 10 15 8 8 8 8 11 9 13 6 7 11 9 19 28 23 26 25 13 18 20 19 24 8 23 19 17 18 18 17 16
14 5 19 25 7 6 6 7 14 18 13 6 8 7 5 11 12 6 5 5 9 16 8 7 6 0 4 10 15 13 21 25 20 16 14 16 17 6 25 23 20 18 17 18 17
10 5 19 22 7 6 9 14 15 14 16 6 7 5 4 18 10 8 9 5 15 13 12 6 5 5 4 3 8 11 23 28 14 16 15 11 10 2 13 18 18 18 17 17 17
8 4 8 17 7 11 13 12 12 20 16 4 8 6 8 11 9 11 11 16 13 20 6 5 4 5 3 2 7 3 16 15 21 20 12 9 8 3 10 18 19 18 17 17 18
6 6 4 4 8 15 18 11 15 17 13 15 15 13 12 20 13 14 26 10 22 21 20 11 8 9 8 3 2 18 22 19 22 13 14 13 15 13 15 19 18 17 18 19 20
5 4 3 8 10 15 16 16 21 15 7 16 7 14 20 9 23 12 18 22 16 7 10 5 6 10 11 10 7 8 17 23 25 21 17 9 15 18 18 20 21 20 18 21 22
4 3 2 6 13 16 13 12 18 19 16 16 14 25 24 20 19 24 16 7 8 8 8 7 4 7 14 16 15 9 20 32 27 24 11 8 21 19 19 17 21 20 20 22 22
3 6 3 11 10 12 10 20 22 22 11 16 20 20 22 21 12 16 17 15 15 12 6 5 3 4 4 16 20 12 24 27 28 19 13 9 19 22 19 19 20 21 21 22 22
Wind_Direction
2 357 352 346 343 341 337 334 331 326 321 318 315 312 311 311 308 294 268 246 211 229 209 220 188 194 204 209 207 225 233 239 240 231 246 265 226 194 245 235 208 205 254 308 157
0 356 352 347 341 336 330 326 322 320 319 318 315 310 310 320 309 286 266 246 219 187 208 205 196 188 194 207 202 208 227 238 242 241 244 236 238 183 216 220 210 198 209 267 181
358 353 349 344 339 334 330 324 320 315 311 308 305 307 307 320 303 250 327 199 218 213 222 221 216 198 212 209 205 218 236 230 236 231 252 256 216 237 235 225 211 201 189 162 197
355 350 346 342 338 333 328 322 317 313 308 303 298 298 297 294 293 351 104 100 220 200 205 204 209 202 212 209 216 240 235 241 252 226 240 245 247 240 237 245 328 163 161 254 190
351 347 343 338 334 330 326 322 317 313 307 300 292 289 294 251 243 247 240 300 209 191 201 200 202 204 219 221 224 224 245 224 245 237 236 246 244 247 235 236 249 228 245 248 236
349 344 340 335 331 327 322 319 315 310 304 296 284 273 252 264 228 216 237 245 223 192 204 210 219 220 254 242 226 229 234 245 226 240 240 243 247 233 232 233 237 244 249 245 231
344 340 334 330 327 324 321 317 313 309 302 292 270 244 249 243 166 146 153 163 205 222 231 220 225 220 227 256 239 255 241 238 235 231 228 238 249 240 235 227 236 235 236 235 226
341 338 333 328 324 322 318 313 312 308 304 292 247 218 242 258 261 261 256 252 250 240 233 240 227 241 242 249 239 229 238 238 223 221 230 220 253 228 222 224 229 228 229 230 227
338 337 333 328 323 322 316 311 311 306 310 237 168 192 253 243 241 255 235 232 232 216 214 226 216 223 222 230 236 218 230 225 229 195 213 205 240 241 183 216 224 221 217 221 220
339 337 335 332 327 325 320 328 324 114 112 139 196 202 233 239 207 276 236 209 212 194 205 210 213 213 224 206 223 223 226 244 218 204 210 208 231 213 222 224 224 224 217 214 216
340 338 337 335 330 329 335 333 313 205 204 270 281 250 272 280 291 243 196 186 218 189 198 196 201 212 213 212 225 261 253 228 233 211 203 223 215 223 219 219 212 207 209 210 209
342 341 339 337 333 341 341 6 16 334 296 271 259 260 269 278 280 261 215 200 204 201 200 196 216 225 231 229 231 245 252 241 238 207 202 217 227 219 221 214 212 211 212 206 202
345 345 339 335 336 342 346 3 331 326 279 301 293 261 274 210 231 251 218 227 237 226 225 224 224 238 231 230 228 226 231 235 225 208 216 231 223 217 210 226 211 214 219 214 206
345 343 340 336 305 338 1 335 321 324 285 278 257 194 166 199 227 217 194 232 226 243 239 244 239 240 222 231 225 227 223 236 222 202 217 209 233 209 209 215 223 227 224 217 208
345 342 339 354 314 330 334 319 322 227 290 38 90 116 149 257 312 141 187 186 219 233 222 233 234 240 244 237 226 233 225 219 219 230 232 186 237 236 196 210 215 208 210 208 205
344 343 346 356 316 338 322 309 273 240 270 328 313 347 320 317 303 275 222 217 246 228 219 249 268 278 236 229 224 230 227 222 222 235 226 218 209 225 192 209 209 197 205 205 203
343 351 360 347 334 322 316 287 272 255 3 359 331 313 314 302 295 288 265 216 235 248 209 220 243 246 236 244 223 219 202 185 196 210 218 211 209 224 187 196 207 199 195 201 198
343 352 350 345 336 333 306 305 247 12 357 327 313 309 284 295 301 331 298 265 243 228 265 274 267 200 215 227 218 198 199 202 183 194 209 205 218 205 191 198 213 177 178 159 171
349 349 352 354 344 332 323 328 7 356 334 319 313 295 11 342 299 306 276 309 323 303 238 278 240 237 243 213 220 199 200 220 256 194 221 184 221 203 189 165 183 152 150 154 148
339 327 7 347 343 310 2 350 349 3 327 288 291 342 330 343 326 331 318 11 359 359 335 289 274 256 222 225 215 213 209 214 230 212 202 188 203 197 188 168 154 155 151 137 137
341 311 6 349 327 19 29 341 326 337 351 313 306 290 316 340 316 300 319 345 319 356 341 270 251 340 266 194 211 211 209 214 212 234 198 183 201 169 182 174 161 148 151 139 130
327 345 355 346 24 24 354 335 308 336 326 315 294 296 320 332 319 303 326 269 331 350 320 270 297 301 287 213 121 220 220 199 206 205 216 209 166 58 175 161 145 140 141 127 126
345 308 1 346 19 357 339 320 344 331 336 316 299 278 292 322 317 288 328 319 332 336 305 337 272 299 163 84 166 202 226 227 212 217 200 205 128 172 161 149 125 139 130 129 128
339 341 357 312 7 355 335 326 332 338 320 337 296 300 314 320 306 298 300 311 331 311 318 281 249 262 290 341 98 198 202 217 227 211 233 230 134 160 147 134 138 131 129 130 131
21 16 340 320 338 331 323 312 332 347 313 314 297 307 318 301 309 272 322 319 317 323 353 30 287 283 275 280 190 207 223 205 223 209 225 152 153 162 153 152 138 134 133 130 127
348 327 306 279 317 316 319 325 324 323 318 301 298 307 307 293 278 288 293 293 279 329 357 352 274 309 281 255 232 229 223 189 206 221 219 149 128 146 140 136 137 136 133 130 125
240 245 283 289 325 324 324 324 306 319 310 299 299 300 298 299 295 278 270 261 257 278 302 284 286 305 278 295 159 187 198 185 192 201 197 238 134 124 136 138 140 137 134 128 124